Location: Morlupo
(42.1333°N, 12.5000°E)
Time: 16:37:35
(UTC+00:00)

ATLAS 2AS CENTAUR R/B - Pass Details

Date: 18 September 2020
Orbit: 939 x 1273 km, 63.7° (Epoch: 19 October)

Event Time Altitude Azimuth Distance (km) Brightness Sun altitude
Rises 21:01:06 0° 230° (SW) 4,190 5.8 -38.4°
Reaches altitude 10° 21:03:57 10° 234° (SW) 3,244 5.2 -38.7°
Enters shadow 21:04:48 14° 236° (WSW) 2,974 5.0 -38.8°
Exits shadow 21:11:56 56° 318° (NW) 1,492 3.5 -39.6°
Drops below altitude 10° 21:19:27 10° 30° (NNE) 3,229 5.4 -40.5°
Sets 21:22:18 0° 34° (NE) 4,169 6.0 -40.8°
